Location: Gerlach
(40.6516°N, 119.3568°W)
Time: 15:01:10
(UTC-07:00)

A-11 Canister half - Pass Details

Date: 24 February 2024
Orbit: 1525 x 1683 km, 47.3° (Epoch: 21 April)

Event Time Altitude Azimuth Distance (km) Brightness Sun altitude
Rises 20:29:45 0° 229° (SW) 4,782 12.0 -32.2°
Reaches altitude 10° 20:32:52 10° 228° (SW) 3,778 11.3 -32.7°
Enters shadow 20:41:59 72° 164° (SSE) 1,613 8.8 -34.4°
